This is the latest recevied weather packets stored in our database for station/object EA1AHA-13. If no packets are shown the sender has not sent any weather packets the latest 10 day(s).
| Time | Temp. | Humidity | Pressure | Rain* | Wind** | Luminosity | Snow |
|---|---|---|---|---|---|---|---|
| 1777929678 | 11.11° C | 89% | 1014 hPa | 0 mm | - | - | - |
| 1777929101 | 11.11° C | 89% | 1014 hPa | 0 mm | - | - | - |
| 1777928477 | 11.11° C | 89% | 1014.2 hPa | 0 mm | - | - | - |
| 1777927901 | 11.11° C | 89% | 1014.1 hPa | 0 mm | - | - | - |
| 1777927277 | 11.11° C | 90% | 1014 hPa | 0.25 mm | - | - | - |
| 1777926701 | 11.67° C | 91% | 1014.2 hPa | 0.51 mm | - | - | - |
| 1777926077 | 11.67° C | 91% | 1014 hPa | 0.51 mm | - | - | - |
| 1777925501 | 11.11° C | 91% | 1013.7 hPa | 0.51 mm | - | - | - |
| 1777924877 | 11.67° C | 91% | 1013.9 hPa | 0.51 mm | - | - | - |
| 1777924301 | 12.22° C | 90% | 1013.9 hPa | 0.51 mm | - | - | - |
| 1777923677 | 12.78° C | 89% | 1013.9 hPa | 0.25 mm | - | - | - |
| 1777923101 | 12.78° C | 84% | 1013.7 hPa | 0 mm | - | - | - |
| 1777922477 | 12.78° C | 81% | 1013.5 hPa | 0 mm | - | - | - |
| 1777921901 | 12.78° C | 81% | 1013.6 hPa | 0 mm | - | - | - |
| 1777921277 | 13.33° C | 80% | 1013.4 hPa | 0 mm | - | - | - |
| 1777920702 | 13.33° C | 78% | 1013.5 hPa | 0 mm | - | - | - |
| 1777920077 | 13.33° C | 79% | 1013.5 hPa | 0 mm | - | - | - |
| 1777919501 | 13.33° C | 79% | 1013.4 hPa | 0 mm | - | - | - |
| 1777918877 | 13.33° C | 78% | 1013.4 hPa | 0 mm | - | - | - |
| 1777918301 | 13.33° C | 78% | 1013.4 hPa | 0 mm | - | - | - |
| 1777917677 | 13.33° C | 79% | 1013.6 hPa | 0 mm | - | - | - |
| 1777917101 | 13.33° C | 78% | 1013.4 hPa | 0 mm | - | - | - |
| 1777916477 | 13.33° C | 78% | 1013.5 hPa | 0 mm | - | - | - |
| 1777915901 | 13.33° C | 78% | 1013.4 hPa | 0 mm | - | - | - |
| 1777915277 | 13.89° C | 77% | 1013.5 hPa | 0 mm | - | - | - |
* Rain latest hour (hover to see other rain measurements)
** Current wind speed in m/s (hover to see current wind gust speed)